Location: La Brionne
(46.1728°N, 1.7849°E)
Time: 07:19:43
(UTC+00:00)

Cosmos 2237 Rocket - Pass Details

Date: 16 June 2021
Orbit: 835 x 850 km, 71.0° (Epoch: 31 July)

Event Time Altitude Azimuth Distance (km) Brightness Sun altitude
Exits shadow 21:41:40 10° 105° (ESE) 2,414 4.2 -14.3°
Maximum altitude 21:42:39 11° 95° (E) 2,383 4.2 -14.4°
Drops below altitude 10° 21:44:02 10° 80° (E) 2,449 4.4 -14.5°
Sets 21:48:36 0° 46° (NE) 3,391 5.5 -14.9°
